QPF
0.03 0.03 0.03 0.02 0.03 0.04 0.07 0.08 0.07 0.05 0.05 0.04 0.04 0.04 0.04 0.04 0.04 0.05 0.04 0.04 0.04 0.03 0.03 0.04 0.05 0.05 0.05 0.05 0.05 0.04 0.03 0.03 0.03 0.02 0.02 0.02 0.02 0.02
0.04 0.04 0.03 0.02 0.02 0.04 0.05 0.05 0.05 0.05 0.06 0.07 0.06 0.03 0.03 0.03 0.03 0.05 0.06 0.07 0.07 0.06 0.05 0.06 0.06 0.06 0.06 0.07 0.07 0.06 0.06 0.05 0.04 0.03 0.03 0.03 0.03 0.03
0.04 0.04 0.03 0.02 0.03 0.03 0.03 0.03 0.03 0.04 0.04 0.05 0.05 0.04 0.03 0.04 0.04 0.04 0.05 0.06 0.08 0.08 0.08 0.07 0.07 0.06 0.06 0.07 0.07 0.05 0.05 0.05 0.05 0.04 0.05 0.04 0.04 0.05
0.04 0.03 0.02 0.02 0.03 0.03 0.03 0.03 0.03 0.03 0.04 0.04 0.05 0.05 0.04 0.04 0.05 0.05 0.05 0.05 0.06 0.07 0.07 0.07 0.07 0.07 0.07 0.07 0.06 0.05 0.05 0.05 0.05 0.05 0.05 0.05 0.05 0.05
0.03 0.02 0.02 0.01 0.02 0.03 0.04 0.03 0.03 0.03 0.03 0.03 0.05 0.06 0.06 0.05 0.05 0.05 0.04 0.04 0.05 0.06 0.06 0.07 0.07 0.07 0.07 0.07 0.07 0.06 0.06 0.06 0.05 0.05 0.05 0.05 0.05 0.05
0.03 0.03 0.02 0.01 0.02 0.03 0.03 0.04 0.04 0.04 0.04 0.04 0.06 0.07 0.07 0.07 0.06 0.05 0.04 0.03 0.03 0.04 0.05 0.05 0.05 0.05 0.04 0.04 0.04 0.05 0.05 0.05 0.05 0.05 0.04 0.04 0.04 0.04
0.03 0.03 0.03 0.02 0.01 0.02 0.03 0.04 0.05 0.05 0.05 0.05 0.06 0.07 0.07 0.07 0.05 0.04 0.04 0.04 0.03 0.03 0.03 0.03 0.03 0.03 0.02 0.02 0.02 0.02 0.02 0.02 0.02 0.02 0.02 0.02 0.02 0.03
0.03 0.03 0.02 0.02 0.02 0.03 0.03 0.03 0.06 0.08 0.06 0.06 0.06 0.04 0.04 0.05 0.04 0.04 0.04 0.03 0.03 0.02 0.01 0.01 0.02 0.02 0.01 0.02 0.02 0.02 0.01 0.01 0.01 0.02 0.01 0.01 0.01 0.01
0.03 0.03 0.03 0.04 0.04 0.03 0.03 0.03 0.05 0.07 0.07 0.06 0.05 0.03 0.03 0.04 0.04 0.03 0.03 0.03 0.02 0.02 0.02 0.02 0.02 0.02 0.01 0.01 0.02 0.02 0.01 0.01 0.01 0.01 0.01 0.01 0.01 0.01
0.04 0.03 0.05 0.05 0.04 0.04 0.04 0.03 0.02 0.02 0.03 0.04 0.04 0.03 0.03 0.03 0.03 0.03 0.02 0.02 0.03 0.02 0.03 0.02 0.02 0.02 0.02 0.02 0.02 0.01 0.01 0.01 0.00 0.00 0.01 0.00 0.00 0.00
0.05 0.04 0.04 0.04 0.04 0.04 0.04 0.03 0.02 0.01 0.01 0.01 0.02 0.02 0.02 0.01 0.02 0.02 0.02 0.02 0.02 0.03 0.04 0.03 0.03 0.04 0.03 0.03 0.02 0.01 0.00 0.00 0.00 0.00 0.00 0.00 0.00 0.00
0.04 0.04 0.04 0.03 0.02 0.02 0.03 0.03 0.02 0.02 0.01 0.01 0.01 0.01 0.01 0.01 0.01 0.02 0.02 0.02 0.03 0.02 0.03 0.04 0.04 0.04 0.03 0.02 0.01 0.01 0.00 0.00 0.00 0.00 0.00 0.00 0.00 0.00
0.04 0.04 0.04 0.03 0.03 0.02 0.02 0.02 0.02 0.01 0.01 0.01 0.01 0.02 0.01 0.02 0.02 0.02 0.02 0.03 0.03 0.03 0.03 0.03 0.03 0.02 0.02 0.02 0.01 0.01 0.01 0.00 0.00 0.00 0.00 0.00 0.00 0.00
0.02 0.03 0.04 0.05 0.04 0.03 0.03 0.03 0.03 0.02 0.02 0.02 0.02 0.02 0.02 0.03 0.03 0.03 0.02 0.02 0.02 0.02 0.02 0.02 0.02 0.02 0.02 0.02 0.02 0.01 0.01 0.01 0.01 0.01 0.01 0.00 0.00 0.00
0.01 0.01 0.02 0.02 0.03 0.03 0.03 0.03 0.03 0.03 0.03 0.03 0.03 0.03 0.02 0.02 0.02 0.02 0.01 0.01 0.01 0.01 0.01 0.02 0.02 0.03 0.03 0.02 0.02 0.01 0.02 0.01 0.01 0.01 0.01 0.01 0.01 0.00
0.01 0.02 0.02 0.02 0.02 0.02 0.02 0.03 0.02 0.02 0.02 0.02 0.02 0.02 0.02 0.02 0.02 0.02 0.02 0.01 0.01 0.01 0.01 0.01 0.02 0.02 0.02 0.02 0.02 0.02 0.03 0.02 0.02 0.01 0.01 0.01 0.01 0.01
0.01 0.01 0.01 0.01 0.01 0.01 0.01 0.01 0.01 0.01 0.01 0.01 0.01 0.01 0.01 0.02 0.02 0.03 0.03 0.03 0.03 0.03 0.03 0.03 0.02 0.02 0.03 0.02 0.02 0.02 0.02 0.02 0.02 0.02 0.02 0.01 0.01 0.02
0.01 0.00 0.01 0.01 0.01 0.01 0.01 0.01 0.01 0.01 0.01 0.01 0.01 0.01 0.01 0.01 0.01 0.02 0.03 0.03 0.03 0.03 0.03 0.03 0.03 0.03 0.02 0.02 0.02 0.02 0.02 0.02 0.02 0.02 0.02 0.02 0.01 0.01
0.01 0.01 0.01 0.01 0.01 0.01 0.01 0.01 0.01 0.01 0.01 0.01 0.02 0.01 0.01 0.01 0.01 0.02 0.02 0.02 0.02 0.02 0.02 0.02 0.02 0.03 0.02 0.01 0.01 0.01 0.02 0.02 0.02 0.02 0.02 0.02 0.01 0.01
0.02 0.01 0.01 0.01 0.02 0.02 0.01 0.02 0.02 0.02 0.02 0.02 0.02 0.02 0.01 0.01 0.02 0.02 0.02 0.02 0.02 0.02 0.02 0.02 0.02 0.03 0.02 0.02 0.01 0.01 0.01 0.01 0.02 0.02 0.02 0.02 0.01 0.01
0.02 0.02 0.02 0.02 0.02 0.02 0.02 0.02 0.03 0.02 0.02 0.02 0.02 0.02 0.02 0.01 0.02 0.02 0.02 0.02 0.01 0.01 0.02 0.02 0.03 0.02 0.02 0.02 0.01 0.01 0.01 0.01 0.01 0.02 0.02 0.02 0.02 0.02
0.03 0.03 0.04 0.03 0.03 0.03 0.03 0.03 0.03 0.03 0.03 0.03 0.03 0.03 0.02 0.01 0.01 0.01 0.02 0.01 0.01 0.01 0.01 0.01 0.01 0.01 0.01 0.02 0.03 0.03 0.02 0.02 0.02 0.01 0.01 0.01 0.02 0.03
0.03 0.03 0.03 0.03 0.03 0.03 0.03 0.03 0.03 0.04 0.04 0.04 0.04 0.04 0.03 0.02 0.02 0.02 0.02 0.01 0.01 0.01 0.01 0.01 0.01 0.01 0.01 0.02 0.03 0.03 0.02 0.02 0.02 0.02 0.02 0.02 0.02 0.03
MSLP
1013.47 1013.73 1013.97 1014.19 1014.37 1014.51 1014.60 1014.63 1014.60 1014.51 1014.37 1014.18 1013.97 1013.78 1013.62 1013.55 1013.59 1013.75 1014.05 1014.46 1014.98 1015.56 1016.16 1016.75 1017.29 1017.77 1018.17 1018.52 1018.81 1019.07 1019.31 1019.55 1019.79 1020.04 1020.29 1020.53 1020.77 1020.99
1012.42 1012.65 1012.90 1013.14 1013.38 1013.61 1013.80 1013.95 1014.03 1014.05 1013.98 1013.85 1013.66 1013.46 1013.27 1013.13 1013.08 1013.15 1013.35 1013.67 1014.11 1014.62 1015.18 1015.75 1016.30 1016.81 1017.28 1017.69 1018.06 1018.39 1018.71 1019.02 1019.31 1019.60 1019.86 1020.11 1020.34 1020.55
1011.46 1011.66 1011.90 1012.17 1012.45 1012.74 1013.02 1013.27 1013.45 1013.56 1013.58 1013.51 1013.36 1013.17 1012.95 1012.77 1012.65 1012.63 1012.73 1012.96 1013.30 1013.73 1014.22 1014.75 1015.28 1015.80 1016.29 1016.75 1017.19 1017.60 1017.99 1018.37 1018.73 1019.06 1019.36 1019.63 1019.86 1020.05
1010.68 1010.86 1011.08 1011.35 1011.66 1011.99 1012.33 1012.64 1012.90 1013.09 1013.18 1013.17 1013.06 1012.88 1012.67 1012.46 1012.29 1012.21 1012.22 1012.34 1012.58 1012.92 1013.32 1013.78 1014.26 1014.75 1015.25 1015.73 1016.21 1016.69 1017.15 1017.59 1018.02 1018.41 1018.75 1019.05 1019.30 1019.50
1010.13 1010.28 1010.49 1010.74 1011.05 1011.40 1011.76 1012.10 1012.41 1012.64 1012.77 1012.81 1012.74 1012.59 1012.38 1012.17 1011.97 1011.83 1011.78 1011.82 1011.96 1012.19 1012.50 1012.86 1013.27 1013.71 1014.17 1014.65 1015.14 1015.65 1016.17 1016.67 1017.16 1017.61 1018.02 1018.36 1018.64 1018.87
1009.84 1009.96 1010.13 1010.36 1010.65 1010.98 1011.33 1011.67 1011.97 1012.21 1012.37 1012.42 1012.38 1012.25 1012.06 1011.85 1011.64 1011.47 1011.37 1011.34 1011.40 1011.53 1011.73 1011.99 1012.30 1012.65 1013.05 1013.50 1013.98 1014.50 1015.05 1015.60 1016.15 1016.66 1017.13 1017.53 1017.86 1018.13
1009.74 1009.85 1010.00 1010.19 1010.44 1010.73 1011.04 1011.34 1011.61 1011.82 1011.96 1012.00 1011.96 1011.84 1011.66 1011.46 1011.26 1011.08 1010.95 1010.87 1010.85 1010.90 1011.00 1011.15 1011.35 1011.61 1011.92 1012.30 1012.74 1013.25 1013.81 1014.40 1014.99 1015.57 1016.10 1016.57 1016.96 1017.27
1009.78 1009.88 1010.01 1010.18 1010.38 1010.61 1010.86 1011.10 1011.30 1011.45 1011.54 1011.55 1011.49 1011.36 1011.18 1010.99 1010.79 1010.61 1010.47 1010.36 1010.29 1010.26 1010.27 1010.32 1010.42 1010.57 1010.79 1011.09 1011.48 1011.95 1012.50 1013.11 1013.74 1014.37 1014.97 1015.49 1015.95 1016.32
1009.86 1009.97 1010.10 1010.24 1010.41 1010.58 1010.76 1010.91 1011.04 1011.11 1011.12 1011.07 1010.96 1010.81 1010.62 1010.43 1010.24 1010.07 1009.92 1009.79 1009.70 1009.62 1009.56 1009.53 1009.53 1009.59 1009.72 1009.93 1010.25 1010.68 1011.21 1011.81 1012.47 1013.14 1013.78 1014.37 1014.87 1015.29
1009.90 1010.04 1010.17 1010.31 1010.45 1010.57 1010.68 1010.76 1010.79 1010.77 1010.70 1010.57 1010.41 1010.21 1010.01 1009.80 1009.62 1009.45 1009.31 1009.19 1009.08 1008.98 1008.88 1008.79 1008.73 1008.70 1008.75 1008.89 1009.15 1009.53 1010.02 1010.61 1011.26 1011.94 1012.61 1013.23 1013.77 1014.22
1009.85 1010.02 1010.18 1010.32 1010.44 1010.53 1010.57 1010.58 1010.53 1010.43 1010.27 1010.07 1009.84 1009.60 1009.36 1009.15 1008.96 1008.81 1008.69 1008.58 1008.48 1008.38 1008.26 1008.15 1008.05 1007.97 1007.97 1008.05 1008.24 1008.57 1009.01 1009.56 1010.19 1010.86 1011.53 1012.15 1012.70 1013.15
1009.69 1009.90 1010.08 1010.22 1010.33 1010.40 1010.41 1010.35 1010.24 1010.07 1009.84 1009.57 1009.28 1009.00 1008.73 1008.50 1008.32 1008.18 1008.08 1008.00 1007.93 1007.85 1007.75 1007.64 1007.52 1007.43 1007.39 1007.42 1007.57 1007.83 1008.22 1008.72 1009.30 1009.93 1010.56 1011.15 1011.67 1012.11
1009.46 1009.68 1009.86 1010.01 1010.11 1010.16 1010.14 1010.05 1009.89 1009.67 1009.39 1009.07 1008.74 1008.43 1008.14 1007.91 1007.73 1007.61 1007.54 1007.49 1007.46 1007.41 1007.35 1007.26 1007.16 1007.07 1007.01 1007.02 1007.13 1007.34 1007.66 1008.09 1008.59 1009.15 1009.71 1010.24 1010.71 1011.10
1009.19 1009.39 1009.57 1009.70 1009.78 1009.81 1009.77 1009.66 1009.47 1009.22 1008.92 1008.58 1008.23 1007.90 1007.61 1007.38 1007.22 1007.12 1007.08 1007.07 1007.08 1007.08 1007.06 1007.01 1006.94 1006.87 1006.81 1006.80 1006.87 1007.02 1007.28 1007.62 1008.05 1008.51 1008.98 1009.42 1009.82 1010.14
1008.96 1009.11 1009.23 1009.32 1009.37 1009.37 1009.32 1009.20 1009.01 1008.75 1008.45 1008.11 1007.77 1007.45 1007.17 1006.95 1006.80 1006.73 1006.72 1006.74 1006.79 1006.83 1006.85 1006.84 1006.81 1006.75 1006.70 1006.69 1006.72 1006.83 1007.01 1007.28 1007.60 1007.96 1008.34 1008.69 1009.00 1009.25
1008.82 1008.87 1008.91 1008.94 1008.94 1008.91 1008.84 1008.71 1008.52 1008.28 1008.00 1007.69 1007.37 1007.07 1006.81 1006.62 1006.49 1006.44 1006.44 1006.49 1006.57 1006.64 1006.69 1006.71 1006.69 1006.66 1006.62 1006.59 1006.60 1006.66 1006.79 1006.97 1007.21 1007.49 1007.77 1008.04 1008.27 1008.45
1008.80 1008.74 1008.68 1008.62 1008.57 1008.49 1008.40 1008.26 1008.09 1007.88 1007.62 1007.35 1007.07 1006.81 1006.58 1006.41 1006.30 1006.25 1006.26 1006.32 1006.39 1006.47 1006.53 1006.56 1006.56 1006.53 1006.49 1006.46 1006.45 1006.47 1006.55 1006.68 1006.85 1007.06 1007.27 1007.48 1007.66 1007.81
1008.94 1008.76 1008.59 1008.45 1008.33 1008.21 1008.09 1007.95 1007.79 1007.60 1007.39 1007.16 1006.92 1006.69 1006.49 1006.33 1006.23 1006.17 1006.17 1006.20 1006.26 1006.31 1006.35 1006.37 1006.36 1006.33 1006.29 1006.24 1006.22 1006.23 1006.28 1006.38 1006.52 1006.69 1006.87 1007.05 1007.22 1007.37
1009.25 1008.95 1008.69 1008.47 1008.28 1008.12 1007.97 1007.83 1007.68 1007.52 1007.34 1007.14 1006.94 1006.74 1006.56 1006.40 1006.28 1006.21 1006.17 1006.15 1006.16 1006.17 1006.17 1006.15 1006.12 1006.06 1006.01 1005.96 1005.93 1005.93 1005.98 1006.07 1006.21 1006.38 1006.57 1006.77 1006.96 1007.14
1009.69 1009.32 1008.99 1008.71 1008.47 1008.27 1008.11 1007.96 1007.82 1007.68 1007.52 1007.34 1007.16 1006.97 1006.79 1006.62 1006.47 1006.35 1006.25 1006.17 1006.11 1006.05 1005.99 1005.92 1005.84 1005.76 1005.69 1005.63 1005.60 1005.62 1005.68 1005.80 1005.96 1006.16 1006.39 1006.63 1006.87 1007.11
1010.26 1009.85 1009.48 1009.16 1008.89 1008.68 1008.50 1008.34 1008.20 1008.06 1007.91 1007.75 1007.57 1007.38 1007.17 1006.97 1006.78 1006.59 1006.42 1006.26 1006.12 1005.97 1005.84 1005.70 1005.58 1005.46 1005.37 1005.31 1005.29 1005.33 1005.42 1005.57 1005.77 1006.02 1006.30 1006.61 1006.92 1007.22
1010.92 1010.50 1010.12 1009.80 1009.52 1009.29 1009.10 1008.94 1008.80 1008.65 1008.50 1008.33 1008.13 1007.92 1007.68 1007.43 1007.17 1006.92 1006.66 1006.42 1006.18 1005.95 1005.74 1005.53 1005.36 1005.21 1005.09 1005.03 1005.02 1005.08 1005.20 1005.39 1005.64 1005.94 1006.29 1006.65 1007.02 1007.38
1011.63 1011.23 1010.87 1010.55 1010.28 1010.05 1009.86 1009.69 1009.53 1009.38 1009.21 1009.01 1008.79 1008.53 1008.25 1007.95 1007.62 1007.29 1006.95 1006.62 1006.29 1005.98 1005.69 1005.42 1005.19 1005.01 1004.87 1004.80 1004.81 1004.88 1005.03 1005.26 1005.55 1005.89 1006.27 1006.68 1007.09 1007.49
Thickness
5689 5689 5690 5692 5692 5692 5691 5689 5685 5681 5681 5684 5683 5684 5682 5681 5679 5679 5678 5676 5674 5672 5670 5669 5667 5666 5664 5663 5662 5661 5660 5659 5658 5657 5657 5656 5656 5655
5684 5684 5684 5687 5687 5686 5686 5685 5684 5680 5678 5680 5678 5679 5677 5677 5674 5674 5673 5671 5669 5667 5665 5664 5663 5661 5660 5658 5656 5655 5654 5653 5652 5651 5651 5650 5650 5649
5680 5680 5679 5680 5680 5681 5681 5680 5679 5678 5674 5674 5674 5673 5670 5670 5669 5669 5668 5667 5665 5662 5660 5659 5657 5655 5654 5652 5651 5650 5648 5647 5646 5645 5644 5643 5643 5643
5675 5675 5674 5675 5674 5675 5675 5675 5675 5673 5671 5668 5667 5666 5664 5664 5663 5663 5664 5663 5661 5657 5655 5653 5652 5650 5648 5646 5645 5644 5642 5641 5640 5638 5637 5636 5636 5635
5671 5670 5670 5670 5669 5670 5669 5670 5670 5669 5667 5664 5663 5662 5660 5659 5658 5658 5658 5656 5655 5653 5650 5648 5646 5644 5642 5641 5639 5638 5636 5635 5634 5632 5630 5629 5629 5628
5666 5665 5665 5665 5664 5664 5664 5663 5663 5662 5661 5660 5659 5657 5656 5654 5653 5652 5651 5651 5650 5649 5646 5644 5641 5639 5638 5636 5635 5633 5631 5629 5627 5625 5624 5623 5622 5621
5660 5659 5659 5658 5657 5658 5659 5658 5658 5657 5657 5655 5654 5653 5651 5649 5648 5648 5646 5645 5644 5643 5641 5640 5638 5637 5635 5632 5630 5628 5626 5624 5622 5620 5618 5617 5615 5615
5655 5654 5653 5652 5651 5649 5650 5650 5650 5651 5652 5650 5649 5648 5645 5645 5643 5642 5641 5639 5638 5638 5635 5635 5634 5633 5631 5629 5626 5623 5621 5618 5616 5614 5612 5610 5609 5607
5650 5649 5650 5650 5648 5648 5645 5644 5644 5643 5643 5644 5644 5642 5640 5640 5637 5636 5634 5633 5631 5631 5629 5629 5629 5627 5626 5624 5620 5617 5614 5612 5610 5608 5607 5605 5603 5601
5646 5645 5644 5644 5644 5643 5643 5643 5642 5641 5639 5637 5638 5636 5635 5633 5631 5630 5628 5627 5626 5626 5625 5623 5624 5622 5621 5618 5614 5612 5609 5607 5604 5603 5601 5599 5597 5595
5643 5642 5641 5640 5636 5636 5638 5639 5638 5637 5634 5632 5630 5629 5627 5626 5624 5624 5624 5624 5624 5624 5621 5619 5619 5617 5616 5615 5611 5608 5604 5602 5600 5598 5596 5594 5592 5590
5641 5639 5635 5635 5632 5631 5634 5635 5634 5633 5633 5630 5627 5625 5624 5623 5620 5620 5622 5621 5621 5619 5618 5614 5613 5612 5611 5611 5608 5605 5601 5598 5596 5594 5592 5590 5588 5586
5641 5639 5636 5630 5629 5628 5628 5630 5629 5627 5628 5628 5628 5627 5624 5622 5620 5618 5617 5617 5616 5615 5614 5610 5608 5607 5606 5606 5605 5603 5600 5597 5594 5592 5589 5586 5583 5581
5638 5638 5634 5627 5626 5625 5625 5624 5623 5622 5627 5628 5627 5625 5623 5620 5618 5616 5613 5611 5610 5609 5607 5605 5604 5602 5602 5600 5600 5599 5596 5594 5592 5590 5588 5583 5579 5575
5635 5631 5627 5624 5623 5623 5620 5620 5620 5623 5624 5624 5622 5621 5620 5617 5615 5611 5609 5608 5606 5605 5603 5600 5599 5598 5596 5595 5594 5593 5591 5590 5587 5585 5583 5580 5577 5574
5631 5627 5623 5622 5621 5620 5619 5619 5619 5620 5620 5619 5618 5617 5616 5613 5612 5610 5608 5606 5605 5604 5600 5597 5594 5592 5591 5590 5589 5588 5586 5583 5582 5580 5577 5575 5572 5570
5629 5628 5626 5625 5624 5624 5622 5620 5619 5617 5616 5615 5614 5612 5611 5609 5607 5607 5605 5604 5602 5600 5598 5594 5591 5588 5586 5585 5584 5583 5581 5578 5576 5573 5569 5568 5567 5565
5624 5627 5626 5625 5624 5623 5621 5619 5617 5615 5613 5611 5609 5608 5606 5605 5603 5602 5600 5599 5597 5595 5593 5591 5588 5585 5583 5582 5577 5576 5575 5572 5570 5567 5564 5562 5562 5560
5623 5626 5625 5623 5622 5621 5619 5617 5614 5611 5608 5606 5604 5603 5602 5601 5599 5597 5595 5593 5591 5590 5588 5586 5583 5580 5577 5577 5575 5567 5566 5565 5563 5561 5559 5557 5555 5553
5623 5623 5622 5620 5619 5617 5615 5613 5611 5608 5605 5603 5601 5599 5598 5596 5593 5591 5589 5587 5586 5585 5584 5581 5578 5574 5571 5570 5569 5565 5559 5558 5556 5554 5553 5552 5549 5546
5621 5620 5619 5617 5615 5613 5610 5608 5605 5603 5600 5599 5597 5594 5593 5590 5588 5586 5585 5579 5579 5580 5579 5576 5572 5566 5566 5564 5563 5562 5557 5550 5548 5545 5545 5545 5544 5543
5617 5616 5615 5612 5610 5608 5605 5603 5601 5598 5596 5594 5592 5590 5588 5586 5584 5581 5581 5579 5577 5576 5574 5572 5568 5564 5562 5560 5558 5556 5553 5549 5544 5539 5536 5535 5535 5535
5611 5610 5608 5607 5604 5602 5601 5599 5596 5594 5592 5589 5587 5585 5583 5581 5580 5579 5577 5576 5574 5571 5569 5566 5564 5560 5558 5556 5553 5551 5549 5546 5544 5540 5537 5531 5526 5523